H1 CPF 2 NER 2022 1 26 9 026 01 glonass132 H2 1401201 9132 39620 2022 1 26 0 0 0 2022 1 29 23 45 0 900 1 1 0 0 0 1 H9 10 0 59605 0.00000 0 10315794.074 -2711983.372 23194125.999 10 0 59605 900.00000 0 11729922.636 -261728.766 22677387.182 10 0 59605 1800.00000 0 13276637.597 1997880.097 21721528.844 10 0 59605 2700.00000 0 14904468.299 4018720.702 20345201.955 10 0 59605 3600.00000 0 16555107.193 5763508.582 18575152.516 10 0 59605 4500.00000 0 18165791.473 7207088.768 16445702.408 10 0 59605 5400.00000 0 19671887.295 8337219.701 13998088.584 10 0 59605 6300.00000 0 21009570.043 9154819.140 11279672.730 10 0 59605 7200.00000 0 22118490.005 9673663.432 8343035.735 10 0 59605 8100.00000 0 22944313.377 9919553.904 5244973.337 10 0 59605 9000.00000 0 23441033.315 9928985.849 2045411.020 10 0 59605 9900.00000 0 23572954.917 9747376.010 -1193741.935 10 0 59605 10800.00000 0 23316271.149 9426922.715 -4409778.319 10 0 59605 11700.00000 0 22660163.233 9024188.130 -7540396.792 10 0 59605 12600.00000 0 21607378.477 8597503.749 -10524900.976 10 0 59605 13500.00000 0 20174259.841 8204307.898 -13305371.216 10 0 59605 14400.00000 0 18390224.202 7898527.176 -15827786.635 10 0 59605 15300.00000 0 16296709.072 7728112.231 -18043075.730 10 0 59605 16200.00000 0 13945629.662 7732832.247 -19908075.045 10 0 59605 17100.00000 0 11397408.605 7942422.043 -21386377.033 10 0 59605 18000.00000 0 8718658.745 8375161.253 -22449050.012 10 0 59605 18900.00000 0 5979614.071 9036947.223 -23075215.566 10 0 59605 19800.00000 0 3251414.649 9920902.786 -23252471.233 10 0 59605 20700.00000 0 603358.110 11007537.625 -22977149.162 10 0 59605 21600.00000 0 -1899768.143 12265458.693 -22254404.517 10 0 59605 22500.00000 0 -4200162.684 13652601.814 -21098130.613 10 0 59605 23400.00000 0 -6249190.042 15117934.259 -19530701.203 10 0 59605 24300.00000 0 -8009173.417 16603557.793 -17582543.796 10 0 59605 25200.00000 0 -9454724.638 18047124.125 -15291551.439 10 0 59605 26100.00000 0 -10573555.347 19384460.852 -12702343.904 10 0 59605 27000.00000 0 -11366735.386 20552296.472 -9865392.582 10 0 59605 27900.00000 0 -11848388.087 21490968.304 -6836026.503 10 0 59605 28800.00000 0 -12044836.241 22146997.455 -3673339.818 10 0 59605 29700.00000 0 -11993236.395 22475420.562 -439023.333 10 0 59605 30600.00000 0 -11739761.152 22441778.273 2803855.519 10 0 59605 31500.00000 0 -11337408.662 22023675.421 5992098.543 10 0 59605 32400.00000 0 -10843534.464 21211846.336 9063622.475 10 0 59605 33300.00000 0 -10317212.519 20010680.245 11958678.627 10 0 59605 34200.00000 0 -9816539.162 18438185.125 14621021.417 10 0 59605 35100.00000 0 -9395995.606 16525392.395 16999002.401 10 0 59605 36000.00000 0 -9103981.386 14315228.654 19046568.393 10 0 59605 36900.00000 0 -8980623.138 11860903.064 20724144.727 10 0 59605 37800.00000 0 -9055950.719 9223879.007 21999387.579 10 0 59605 38700.00000 0 -9348516.522 6471515.441 22847792.259 10 0 59605 39600.00000 0 -9864514.706 3674476.625 23253147.416 10 0 59605 40500.00000 0 -10597435.887 904017.603 23207828.288 10 0 59605 41400.00000 0 -11528270.337 -1770742.765 22712925.129 10 0 59605 42300.00000 0 -12626250.018 -4285449.569 21778205.926 10 0 59605 43200.00000 0 -13850097.643 -6582933.482 20421915.340 10 0 59605 44100.00000 0 -15149730.269 -8615328.289 18670414.535 10 0 59605 45000.00000 0 -16468346.412 -10345798.875 16557669.137 10 0 59605 45900.00000 0 -17744810.108 -11749810.478 14124595.033 10 0 59605 46800.00000 0 -18916233.282 -12815888.680 11418274.006 10 0 59605 47700.00000 0 -19920649.569 -13545840.312 8491053.483 10 0 59605 48600.00000 0 -20699668.928 -13954427.452 5399546.626 10 0 59605 49500.00000 0 -21201002.905 -14068509.022 2203550.806 10 0 59605 50400.00000 0 -21380755.462 -13925686.173 -1035095.786 10 0 59605 51300.00000 0 -21205383.596 -13572508.197 -4253698.452 10 0 59605 52200.00000 0 -20653245.258 -13062313.846 -7389909.333 10 0 59605 53100.00000 0 -19715668.836 -12452798.139 -10382927.161 10 0 59605 54000.00000 0 -18397497.975 -11803406.425 -13174670.800 10 0 59605 54900.00000 0 -16717087.052 -11172664.847 -15710904.170 10 0 59605 55800.00000 0 -14705745.348 -10615559.361 -17942290.773 10 0 59605 56700.00000 0 -12406650.761 -10181073.781 -19825357.303 10 0 59605 57600.00000 0 -9873276.047 -9909991.032 -21323347.323 10 0 59605 58500.00000 0 -7167391.051 -9833051.112 -22406947.874 10 0 59605 59400.00000 0 -4356722.246 -9969544.660 -23054874.196 10 0 59605 60300.00000 0 -1512365.466 -10326402.961 -23254300.304 10 0 59605 61200.00000 0 1293941.426 -10897824.585 -23001125.930 10 0 59605 62100.00000 0 3992573.030 -11665456.263 -22300073.445 10 0 59605 63000.00000 0 6518683.521 -12599122.272 -21164611.575 10 0 59605 63900.00000 0 8814674.850 -13658073.138 -19616706.162 10 0 59605 64800.00000 0 10832362.673 -14792702.204 -17686401.660 10 0 59605 65700.00000 0 12534748.889 -15946658.326 -15411240.621 10 0 59605 66600.00000 0 13897326.056 -17059265.543 -12835531.962 10 0 59605 67500.00000 0 14908858.787 -18068147.023 -10009482.161 10 0 59605 68400.00000 0 15571609.453 -18911941.297 -6988206.646 10 0 59605 69300.00000 0 15900999.327 -19532994.496 -3830641.601 10 0 59605 70200.00000 0 15924720.666 -19879913.030 -598378.665 10 0 59605 71100.00000 0 15681338.940 -19909867.106 2645553.142 10 0 59605 72000.00000 0 15218446.372 -19590546.177 5837932.631 10 0 59605 72900.00000 0 14590447.245 -18901682.663 8916592.756 10 0 59605 73800.00000 0 13856071.078 -17836078.975 11821642.158 10 0 59605 74700.00000 0 13075721.008 -16400094.575 14496636.792 10 0 59605 75600.00000 0 12308771.331 -14613572.991 16889678.183 10 0 59605 76500.00000 0 11610929.519 -12509212.724 18954416.780 10 0 59605 77400.00000 0 11031774.604 -10131409.509 20650941.301 10 0 59605 78300.00000 0 10612575.441 -7534619.434 21946537.867 10 0 59605 79200.00000 0 10384479.899 -4781312.113 22816305.651 10 0 59605 80100.00000 0 10367149.709 -1939599.710 23243618.841 10 0 59605 81000.00000 0 10567896.644 919359.621 23220427.895 10 0 59605 81900.00000 0 10981354.481 3724076.719 22747396.068 10 0 59605 82800.00000 0 11589698.854 6405453.367 21833870.175 10 0 59605 83700.00000 0 12363404.480 8899400.120 20497687.408 10 0 59605 84600.00000 0 13262507.189 11149243.695 18764822.727 10 0 59605 85500.00000 0 14238317.603 13107826.382 16668883.966 10 0 59606 0.00000 0 15235514.827 14739212.687 14250464.479 10 0 59606 900.00000 0 16194533.654 16019935.390 11556363.863 10 0 59606 1800.00000 0 17054144.891 16939728.961 8638694.283 10 0 59606 2700.00000 0 17754123.526 17501724.241 5553884.163 10 0 59606 3600.00000 0 18237892.570 17722094.997 2361600.450 10 0 59606 4500.00000 0 18455032.984 17629172.545 -876392.179 10 0 59606 5400.00000 0 18363554.728 17262065.370 -4097414.024 10 0 59606 6300.00000 0 17931833.491 16668841.274 -7239073.197 10 0 59606 7200.00000 0 17140131.224 15904347.693 -10240465.962 10 0 59606 8100.00000 0 15981635.425 15027761.048 -13043351.985 10 0 59606 9000.00000 0 14462971.826 14099967.425 -15593282.088 10 0 59606 9900.00000 0 12604166.870 13180884.186 -17840656.679 10 0 59606 10800.00000 0 10438058.992 12326834.928 -19741694.282 10 0 59606 11700.00000 0 8009180.718 11588088.280 -21259291.063 10 0 59606 12600.00000 0 5372155.706 11006664.551 -22363754.092 10 0 59606 13500.00000 0 2589675.219 10614503.364 -23033393.403 10 0 59606 14400.00000 0 -269863.670 10432070.522 -23254960.424 10 0 59606 15300.00000 0 -3134961.238 10467464.191 -23023923.171 10 0 59606 16200.00000 0 -5933752.270 10716059.554 -22344571.634 10 0 59606 17100.00000 0 -8596763.731 11160708.481 -21229950.028 10 0 59606 18000.00000 0 -11059577.957 11772487.165 -19701615.978 10 0 59606 18900.00000 0 -13265289.932 12511961.306 -17789230.189 10 0 59606 19800.00000 0 -15166655.455 13330916.066 -15529983.658 10 0 59606 20700.00000 0 -16727839.589 14174477.858 -12967873.062 10 0 59606 21600.00000 0 -17925691.652 14983537.823 -10152838.304 10 0 59606 22500.00000 0 -18750493.037 15697373.493 -7139779.320 10 0 59606 23400.00000 0 -19206146.557 16256356.241 -3987472.254 10 0 59606 24300.00000 0 -19309800.185 16604628.173 -757407.340 10 0 59606 25200.00000 0 -19090922.351 16692633.285 2487427.200 10 0 59606 26100.00000 0 -18589869.635 16479394.029 5683789.711 10 0 59606 27000.00000 0 -17856009.585 15934435.541 8769432.018 10 0 59606 27900.00000 0 -16945480.309 15039275.231 11684322.836 10 0 59606 28800.00000 0 -15918683.819 13788414.391 14371822.468 10 0 59606 29700.00000 0 -14837620.981 12189790.105 16779785.217 10 0 59606 30600.00000 0 -13763182.038 10264668.935 18861567.899 10 0 59606 31500.00000 0 -12752507.774 8046987.690 20576925.202 10 0 59606 32400.00000 0 -11856532.519 5582169.796 21892775.543 10 0 59606 33300.00000 0 -11117811.706 2925467.546 22783824.025 10 0 59606 34200.00000 0 -10568723.939 139899.979 23233032.101 10 0 59606 35100.00000 0 -10230121.296 -2706127.676 23231926.791 10 0 59606 36000.00000 0 -10110482.393 -5541424.476 22780745.278 10 0 59606 36900.00000 0 -10205601.680 -8294727.120 21888413.691 10 0 59606 37800.00000 0 -10498826.131 -10897415.135 20572361.795 10 0 59606 38700.00000 0 -10961827.939 -13286117.267 18858177.926 10 0 59606 39600.00000 0 -11555879.923 -15405103.073 16779111.264 10 0 59606 40500.00000 0 -12233579.815 -17208362.812 14375430.877 10 0 59606 41400.00000 0 -12940951.319 -18661291.491 11693653.364 10 0 59606 42300.00000 0 -13619834.404 -19741908.902 8785653.173 10 0 59606 43200.00000 0 -14210465.407 -20441566.489 5707671.645 10 0 59606 44100.00000 0 -14654139.592 -20765112.651 2519242.671 10 0 59606 45000.00000 0 -14895845.204 -20730510.138 -717945.435 10 0 59606 45900.00000 0 -14886758.918 -20367921.657 -3941231.049 10 0 59606 46800.00000 0 -14586497.995 -19718301.656 -7088181.498 10 0 59606 47700.00000 0 -13965034.115 -18831552.647 -10097793.962 10 0 59606 48600.00000 0 -13004187.568 -17764322.630 -12911672.368 10 0 59606 49500.00000 0 -11698637.484 -16577535.158 -15475157.885 10 0 59606 50400.00000 0 -10056403.708 -15333755.003 -17738391.155 10 0 59606 51300.00000 0 -8098777.672 -14094499.497 -19657285.617 10 0 59606 52200.00000 0 -5859702.366 -12917608.164 -21194392.758 10 0 59606 53100.00000 0 -3384624.634 -11854781.242 -22319641.918 10 0 59606 54000.00000 0 -728864.972 -10949390.899 -23010939.605 10 0 59606 54900.00000 0 2044429.604 -10234657.850 -23254615.772 10 0 59606 55800.00000 0 4866666.177 -9732271.058 -23045707.247 10 0 59606 56700.00000 0 7666422.343 -9451509.734 -22388071.636 10 0 59606 57600.00000 0 10372190.284 -9388905.824 -21294328.159 10 0 59606 58500.00000 0 12915134.325 -9528462.357 -19785625.308 10 0 59606 59400.00000 0 15231746.791 -9842419.370 -17891238.721 10 0 59606 60300.00000 0 17266290.682 -10292535.656 -15648006.124 10 0 59606 61200.00000 0 18972926.165 -10831832.292 -13099609.843 10 0 59606 62100.00000 0 20317431.066 -11406723.829 -10295720.686 10 0 59606 63000.00000 0 21278442.630 -11959445.977 -7291020.192 10 0 59606 63900.00000 0 21848168.047 -12430675.596 -4144121.211 10 0 59606 64800.00000 0 22032534.245 -12762230.225 -916409.074 10 0 59606 65700.00000 0 21850771.417 -12899730.828 2329172.467 10 0 59606 66600.00000 0 21334449.294 -12795113.038 5529364.965 10 0 59606 67500.00000 0 20526008.713 -12408878.856 8621842.689 10 0 59606 68400.00000 0 19476852.655 -11711992.196 11546437.766 10 0 59606 69300.00000 0 18245079.581 -10687337.376 14246317.843 10 0 59606 70200.00000 0 16892956.823 -9330678.681 16669092.598 10 0 59606 71100.00000 0 15484242.228 -7651080.734 18767827.357 10 0 59606 72000.00000 0 14081468.000 -5670772.618 20501944.458 10 0 59606 72900.00000 0 12743301.381 -3424462.171 21837995.835 10 0 59606 73800.00000 0 11522092.695 -958129.916 22750293.281 10 0 59606 74700.00000 0 10461712.558 1672646.330 23221385.825 10 0 59606 75600.00000 0 9595767.220 4404766.096 23242376.936 10 0 59606 76500.00000 0 8946264.638 7169994.030 22813077.206 10 0 59606 77400.00000 0 8522784.846 9897562.210 21941991.201 10 0 59606 78300.00000 0 8322187.035 12516880.196 20646140.035 10 0 59606 79200.00000 0 8328863.604 14960242.040 18950723.928 10 0 59606 80100.00000 0 8515529.001 17165419.821 16888631.659 10 0 59606 81000.00000 0 8844509.267 19078038.188 14499806.291 10 0 59606 81900.00000 0 9269477.818 20653633.428 11830478.852 10 0 59606 82800.00000 0 9737564.742 21859313.243 8932283.974 10 0 59606 83700.00000 0 10191751.583 22674949.804 5861273.461 10 0 59606 84600.00000 0 10573451.778 23093857.443 2676845.571 10 0 59606 85500.00000 0 10825169.098 23122927.345 -559390.420 10 0 59607 0.00000 0 10893123.023 22782213.818 -3784793.367 10 0 59607 900.00000 0 10729730.947 22103988.853 -6936893.060 10 0 59607 1800.00000 0 10295842.730 21131304.469 -9954589.848 10 0 59607 2700.00000 0 9562633.090 19916121.499 -12779334.302 10 0 59607 3600.00000 0 8513070.924 18517082.610 -15356260.096 10 0 59607 4500.00000 0 7142902.140 16997021.787 -17635250.024 10 0 59607 5400.00000 0 5461102.457 15420313.896 -19571914.108 10 0 59607 6300.00000 0 3489778.470 13850174.786 -21128460.575 10 0 59607 7200.00000 0 1263518.329 12346024.920 -22274442.223 10 0 59607 8100.00000 0 -1171783.724 10961027.090 -22987362.987 10 0 59607 9000.00000 0 -3760582.638 9739901.869 -23253132.025 10 0 59607 9900.00000 0 -6439750.796 8717113.141 -23066355.366 10 0 59607 10800.00000 0 -9140974.891 7915500.726 -22430458.276 10 0 59607 11700.00000 0 -11793382.732 7345418.497 -21357634.639 10 0 59607 12600.00000 0 -14326290.970 7004415.166 -19868623.087 10 0 59607 13500.00000 0 -16671959.159 6877471.947 -17992313.066 10 0 59607 14400.00000 0 -18768234.626 6937787.493 -15765187.578 10 0 59607 15300.00000 0 -20560976.680 7148077.080 -13230612.868 10 0 59607 16200.00000 0 -22006157.674 7462330.698 -10437988.732 10 0 59607 17100.00000 0 -23071551.900 7827954.708 -7441776.265 10 0 59607 18000.00000 0 -23737940.638 8188205.023 -4300422.885 10 0 59607 18900.00000 0 -23999782.520 8484806.910 -1075206.810 10 0 59607 19800.00000 0 -23865321.252 8660648.315 2170974.948 10 0 59607 20700.00000 0 -23356127.087 8662430.526 5374849.502 10 0 59607 21600.00000 0 -22506092.853 8443161.871 8474015.993 10 0 59607 22500.00000 0 -21359928.752 7964387.257 11408172.456 10 0 59607 23400.00000 0 -19971221.538 7198058.096 14120296.420 10 0 59607 24300.00000 0 -18400141.984 6127962.988 16557755.442 10 0 59607 25200.00000 0 -16710898.996 4750658.680 18673325.772 10 0 59607 26100.00000 0 -14969048.899 3075862.504 20426099.626 10 0 59607 27000.00000 0 -13238773.613 1126290.401 21782264.425 10 0 59607 27900.00000 0 -11580241.871 -1063051.962 22715740.299 10 0 59607 28800.00000 0 -10047163.302 -3446094.593 23208665.154 10 0 59607 29700.00000 0 -8684636.194 -5967393.540 23251719.829 10 0 59607 30600.00000 0 -7527376.903 -8564215.784 22844288.873 10 0 59607 31500.00000 0 -6598402.508 -11168932.229 21994455.466 10 0 59607 32400.00000 0 -5908219.233 -13711620.286 20718831.902 10 0 59607 33300.00000 0 -5454548.111 -16122769.320 19042229.767 10 0 59607 34200.00000 0 -5222597.301 -18335978.211 16997176.603 10 0 59607 35100.00000 0 -5185868.046 -20290534.943 14623288.309 10 0 59607 36000.00000 0 -5307459.459 -21933772.978 11966508.905 10 0 59607 36900.00000 0 -5541817.015 -23223108.155 9078231.511 10 0 59607 37800.00000 0 -5836851.421 -24127672.926 6014316.462 10 0 59607 38700.00000 0 -6136339.288 -24629480.916 2834024.252 10 0 59607 39600.00000 0 -6382505.404 -24724073.883 -401117.218 10 0 59607 40500.00000 0 -6518678.630 -24420624.211 -3628490.376 10 0 59607 41400.00000 0 -6491910.161 -23741488.339 -6785589.031 10 0 59607 42300.00000 0 -6255444.170 -22721229.050 -9811220.190 10 0 59607 43200.00000 0 -5770936.515 -21405146.545 -12646684.105 10 0 59607 44100.00000 0 -5010327.318 -19847378.562 -15236910.092 10 0 59607 45000.00000 0 -3957287.270 -18108647.870 -17531526.210 10 0 59607 45900.00000 0 -2608174.885 -16253750.312 -19485842.052 10 0 59607 46800.00000 0 -972462.098 -14348887.569 -21061725.327 10 0 59607 47700.00000 0 927392.396 -12458955.711 -22228354.664 10 0 59607 48600.00000 0 3056619.684 -10644902.675 -22962833.349 10 0 59607 49500.00000 0 5369341.647 -8961265.290 -23250651.173 10 0 59607 50400.00000 0 7810248.825 -7453989.380 -23085984.289 10 0 59607 51300.00000 0 10316687.261 -6158624.811 -22471826.055 10 0 59607 52200.00000 0 12821068.869 -5098971.865 -21419944.994 10 0 59607 53100.00000 0 15253505.569 -4286236.568 -19950669.418 10 0 59607 54000.00000 0 17544557.528 -3718731.025 -18092501.714 10 0 59607 54900.00000 0 19627980.337 -3382131.795 -15881568.868 10 0 59607 55800.00000 0 21443355.336 -3250285.456 -13360919.314 10 0 59607 56700.00000 0 22938491.839 -3286526.904 -10579679.648 10 0 59607 57600.00000 0 24071499.322 -3445453.764 -7592087.891 10 0 59607 58500.00000 0 24812441.437 -3675080.439 -4456423.003 10 0 59607 59400.00000 0 25144501.618 -3919278.765 -1233852.727 10 0 59607 60300.00000 0 25064610.994 -4120399.714 2012776.223 10 0 59607 61200.00000 0 24583512.489 -4221962.850 5220180.181 10 0 59607 62100.00000 0 23725259.398 -4171297.386 8325886.762 10 0 59607 63000.00000 0 22526171.037 -3922021.078 11269463.346 10 0 59607 63900.00000 0 21033291.300 -3436250.610 13993700.502 10 0 59607 64800.00000 0 19302417.033 -2686449.065 16445726.487 10 0 59607 65700.00000 0 17395780.997 -1656832.100 18578030.903 10 0 59607 66600.00000 0 15379488.387 -344273.717 20349377.862 10 0 59607 67500.00000 0 13320815.413 1241325.981 21725591.872 10 0 59607 68400.00000 0 11285483.427 3077225.768 22680202.576 10 0 59607 69300.00000 0 9335022.239 5128572.465 23194937.489 10 0 59607 70200.00000 0 7524331.562 7349643.203 23260055.110 10 0 59607 71100.00000 0 5899540.535 9685548.682 22874513.791 10 0 59607 72000.00000 0 4496252.339 12074326.457 22045974.727 10 0 59607 72900.00000 0 3338244.466 14449337.761 20790640.375 10 0 59607 73800.00000 0 2436676.224 16741869.190 19132932.279 10 0 59607 74700.00000 0 1789834.114 18883832.441 17105014.994 10 0 59607 75600.00000 0 1383423.592 20810451.532 14746175.233 10 0 59607 76500.00000 0 1191393.436 22462827.529 12102067.732 10 0 59607 77400.00000 0 1177257.227 23790275.677 9223841.634 10 0 59607 78300.00000 0 1295856.090 24752339.106 6167163.170 10 0 59607 79200.00000 0 1495488.755 25320396.293 2991152.303 10 0 59607 80100.00000 0 1720319.889 25478795.838 -242747.291 10 0 59607 81000.00000 0 1912965.951 25225471.376 -3471944.225 10 0 59607 81900.00000 0 2017150.352 24572010.564 -6633899.761 10 0 59607 82800.00000 0 1980316.513 23543174.500 -9667330.028 10 0 59607 83700.00000 0 1756088.801 22175886.540 -12513387.553 10 0 59607 84600.00000 0 1306477.287 20517731.402 -15116799.660 10 0 59607 85500.00000 0 603732.549 18625025.881 -17426941.789 10 0 59608 0.00000 0 -368228.987 16560540.615 -19398824.787 10 0 59608 900.00000 0 -1612891.701 14390965.651 -20993977.765 10 0 59608 1800.00000 0 -3120739.760 12184227.644 -22181206.266 10 0 59608 2700.00000 0 -4869409.752 10006766.323 -22937213.902 10 0 59608 3600.00000 0 -6824392.213 7920886.477 -23247071.741 10 0 59608 4500.00000 0 -8940255.859 5982295.096 -23104526.332 10 0 59608 5400.00000 0 -11162345.659 4237927.134 -22512138.980 10 0 59608 6300.00000 0 -13428885.720 2724151.352 -21481252.270 10 0 59608 7200.00000 0 -15673400.287 1465432.057 -20031783.154 10 0 59608 8100.00000 0 -17827352.262 473503.402 -18191845.512 10 0 59608 9000.00000 0 -19822888.824 -252908.726 -15997208.488 10 0 59608 9900.00000 0 -21595578.419 -727805.437 -13490600.606 10 0 59608 10800.00000 0 -23087023.354 -977086.412 -10720872.969 10 0 59608 11700.00000 0 -24247236.999 -1037210.167 -7742038.118 10 0 59608 12600.00000 0 -25036684.301 -953400.898 -4612204.089 10 0 59608 13500.00000 0 -25427898.678 -777479.640 -1392425.666 10 0 59608 14400.00000 0 -25406606.448 -565413.663 1854503.249 10 0 59608 15300.00000 0 -24972311.231 -374690.284 5065290.728 10 0 59608 16200.00000 0 -24138314.098 -261628.674 8177395.386 10 0 59608 17100.00000 0 -22931169.598 -278745.656 11130256.473 10 0 59608 18000.00000 0 -21389602.020 -472288.758 13866480.071 10 0 59608 18900.00000 0 -19562929.246 -880042.058 16332957.495 10 0 59608 19800.00000 0 -17509062.203 -1529498.184 18481893.880 10 0 59608 20700.00000 0 -15292165.539 -2436473.614 20271727.141 10 0 59608 21600.00000 0 -12980078.751 -3604225.192 21667920.443 10 0 59608 22500.00000 0 -10641606.242 -5023104.278 22643614.124 10 0 59608 23400.00000 0 -8343789.503 -6670762.147 23180126.090 10 0 59608 24300.00000 0 -6149274.317 -8512897.208 23267292.882 10 0 59608 25200.00000 0 -4113881.180 -10504512.248 22903646.659 10 0 59608 26100.00000 0 -2284478.040 -12591628.927 22096426.304 10 0 59608 27000.00000 0 -697241.363 -14713388.279 20861423.809 10 0 59608 27900.00000 0 623624.777 -16804450.382 19222669.794 10 0 59608 28800.00000 0 1666660.859 -18797594.311 17211964.698 10 0 59608 29700.00000 0 2433385.558 -20626411.518 14868264.697 10 0 59608 30600.00000 0 2937983.145 -22227982.068 12236933.683 10 0 59608 31500.00000 0 3206459.114 -23545423.746 9368875.071 10 0 59608 32400.00000 0 3275300.347 -24530209.216 6319559.071 10 0 59608 33300.00000 0 3189696.302 -25144155.690 3147963.049 10 0 59608 34200.00000 0 3001395.787 -25361004.686 -84555.727 10 0 59608 35100.00000 0 2766289.002 -25167526.135 -3315434.364 10 0 59608 36000.00000 0 2541816.003 -24564100.323 -6482103.996 10 0 59608 36900.00000 0 2384310.167 -23564752.554 -9523192.403 10 0 59608 37800.00000 0 2346388.244 -22196637.843 -12379707.010 10 0 59608 38700.00000 0 2474497.009 -20498995.655 -14996175.829 10 0 59608 39600.00000 0 2806720.367 -18521616.681 -17321724.358 10 0 59608 40500.00000 0 3370940.281 -16322883.978 -19311067.598 10 0 59608 41400.00000 0 4183430.551 -13967468.635 -20925397.730 10 0 59608 42300.00000 0 5247944.597 -11523774.806 -22133149.679 10 0 59608 43200.00000 0 6555338.043 -9061239.628 -22910629.082 10 0 59608 44100.00000 0 8083744.635 -6647599.965 -23242489.549 10 0 59608 45000.00000 0 9799300.761 -4346239.756 -23122048.832 10 0 59608 45900.00000 0 11657390.735 -2213728.706 -22551436.555 10 0 59608 46800.00000 0 13604362.843 -297655.414 -21541569.296 10 0 59608 47700.00000 0 15579645.791 1365153.901 -20111952.199 10 0 59608 48600.00000 0 17518177.865 2749956.043 -18290309.790 10 0 59608 49500.00000 0 19353047.224 3844895.052 -16112052.157 10 0 59608 50400.00000 0 21018232.125 4651256.035 -13619586.305 10 0 59608 51300.00000 0 22451325.083 5183158.165 -10861485.848 10 0 59608 52200.00000 0 23596125.157 5466700.511 -7891535.455 10 0 59608 53100.00000 0 24404987.754 5538597.895 -4767669.503 10 0 59608 54000.00000 0 24840831.588 5444366.168 -1550826.794 10 0 59608 54900.00000 0 24878717.080 5236135.748 1696254.799 10 0 59608 55800.00000 0 24506928.925 4970188.347 4910278.383 10 0 59608 56700.00000 0 23727517.062 4704323.637 8028636.863 10 0 59608 57600.00000 0 22556273.672 4495169.692 10990644.514 10 0 59608 58500.00000 0 21022148.167 4395553.027 13738725.888 10 0 59608 59400.00000 0 19166126.150 4452040.977 16219538.065 10 0 59608 60300.00000 0 17039620.993 4702761.186 18385004.106 10 0 59608 61200.00000 0 14702447.105 5175590.476 20193237.820 10 0 59608 62100.00000 0 12220461.045 5886789.166 21609342.778 10 0 59608 63000.00000 0 9662969.866 6840137.550 22606071.400 10 0 59608 63900.00000 0 7100015.150 8026609.814 23164332.979 10 0 59608 64800.00000 0 4599645.371 9424598.006 23273542.676 10 0 59608 65700.00000 0 2225288.890 11000675.774 22931806.585 10 0 59608 66600.00000 0 33335.074 12710869.267 22145940.931 10 0 59608 67500.00000 0 -1928978.274 14502381.931 20931326.417 10 0 59608 68400.00000 0 -3625285.996 16315701.471 19311601.462 10 0 59608 69300.00000 0 -5031356.241 18087001.759 17318200.710 10 0 59608 70200.00000 0 -6135840.854 19750740.618 14989747.766 10 0 59608 71100.00000 0 -6940486.517 21242346.454 12371313.395 10 0 59608 72000.00000 0 -7459799.569 22500883.061 9513552.777 10 0 59608 72900.00000 0 -7720179.845 23471582.703 6471737.462 10 0 59608 73800.00000 0 -7758560.515 24108142.814 3304699.468 10 0 59608 74700.00000 0 -7620611.093 24374691.042 73706.832 10 0 59608 75600.00000 0 -7358578.934 24247336.778 -3158708.883 10 0 59608 76500.00000 0 -7028859.448 23715244.004 -6329951.523 10 0 59608 77400.00000 0 -6689396.675 22781179.804 -9378563.283 10 0 59608 78300.00000 0 -6397023.236 21461514.356 -12245409.133 10 0 59608 79200.00000 0 -6204851.366 19785670.714 -14874820.241 10 0 59608 80100.00000 0 -6159825.085 17795045.546 -17215674.407 10 0 59608 81000.00000 0 -6300537.137 15541443.849 -19222392.622 10 0 59608 81900.00000 0 -6655403.716 13085090.989 -20855832.205 10 0 59608 82800.00000 0 -7241275.315 10492303.257 -22084058.697 10 0 59608 83700.00000 0 -8062544.168 7832912.541 -22882980.858 10 0 59608 84600.00000 0 -9110788.085 5177551.313 -23236835.591 10 0 59608 85500.00000 0 -10364968.097 2594910.464 -23138512.198 99